Regional Weather Roundup
Issued by NWS

Home | Current Version | Previous Version | Graphics & Text | Print | Product List | Glossary On
Versions: 1 2 3 4 5 6 7 8 9 10 11 12 13 14 15 16 17 18 19 20 21 22 23 24 25 26 27 28 29 30 31 32 33 34 35 36 37 38 39 40 41 42 43 44 45 46 47 48 49 50
000
ASUS43 KLOT 030508
RWRIL

ILLINOIS REGIONAL WEATHER ROUNDUP
NATIONAL WEATHER SERVICE CHICAGO/ROMEOVILLE IL
1200 AM CDT FRI JUL 03 2015

NOTE: "FAIR" INDICATES FEW OR NO CLOUDS BELOW 12,000 FEET WITH NO
SIGNIFICANT WEATHER AND/OR OBSTRUCTIONS TO VISIBILITY.

* THESE STATIONS ARE NOT UNDER NWS QUALITY CONTROL. THEY ALSO MAY NOT
  REPORT WEATHER SUCH AS PRECIPITATION OR FOG.

ILZ001-002-007-009-015-016-024-030600-
NORTHWEST ILLINOIS

CITY           SKY/WX    TMP DP  RH WIND       PRES   REMARKS
MOLINE         CLOUDY    62  58  86 E6        29.97R
STERLING*      CLOUDY    59  55  88 E6        29.98S
SAVANNA*       CLOUDY    59  51  77 NE5       29.99R
$$

ILZ003-004-008-010-011-017-018-030600-
NORTH CENTRAL ILLINOIS

CITY           SKY/WX    TMP DP  RH WIND       PRES   REMARKS
ROCKFORD       CLOUDY    60  53  77 E6        30.01R
FREEPORT*      CLOUDY    55  52  87 NE3       30.01S
ROCHELLE*      FAIR      58  54  85 E10       30.00S
DE KALB*       PTCLDY    54  49  83 NE8       30.01R
PERU*          MOCLDY    61  55  81 NE8       29.99R
$$

ILZ005-006-012>014-019>023-030600-
NORTHEAST ILLINOIS

CITY           SKY/WX    TMP DP  RH WIND       PRES   REMARKS
CHICAGO-OHARE  CLOUDY    57  48  72 N5        30.00S
CHICAGO-MIDWAY CLOUDY    62  51  67 N8        29.99S
AURORA         PTCLDY    58  49  72 NE9       29.99S
LANSING*       PTCLDY    59  54  81 CALM      29.99R
JOLIET*        PTCLDY    59  53  80 NE6       29.99S
WAUKEGAN       MOCLDY    54  48  80 CALM      30.00S
DUPAGE AIRPORT PTCLDY    56  49  77 NE7       29.99S
KANKAKEE*      MOCLDY    59  57  92 NE8       29.97S
WHEELING       MOCLDY    56  47  71 N3        30.01F
MORRIS*        PTCLDY    58  52  80 NE5       29.97R
ROMEOVILLE*    PTCLDY    58  50  74 NE10      29.99S
NORTHERLY ISL    N/A     60  51  72 N6          N/A
$$

LMZ740>746-030600-
SOUTHERN LAKE MICHIGAN

STATION/POSITION SKY/WX   TEMP    WIND        PRES    VSBY  WAVE
                          AIR SEA DIR/SP/G                  HT/PER
                          (F)     (DEG/KT/KT) (MB)    (MI)  (FT/S)
HARRISON CRIB              60     360/  9/ 12   N/A
BURNHAM HARBOR             60     360/  6/ 10   N/A
CALUMET HARBOR             60     350/  5/  7   N/A
BURNS HARBOR               62      70/ 10/ 11 1015.9F
MICHIGAN CITY              60      30/ 10/ 11   N/A
MICHIGAN CITY 6N           62 62   70/ 10/ 14   N/A           3/ 5
ST. JOSEPH                 59 61                N/A           3/ 4
$$

ILZ025>027-034>036-040-047-049-050-058-095>099-030600-
WEST-CENTRAL ILLINOIS

CITY           SKY/WX    TMP DP  RH WIND       PRES   REMARKS
QUINCY         CLOUDY    65  61  87 N5        29.95R
GALESBURG*     CLOUDY    64  57  80 NE7       29.96S
MACOMB*        CLOUDY    63  60  89 NE3       29.98R
JACKSONVILLE*  CLOUDY    67  63  87 N6        29.93S
PITTSFIELD*    CLOUDY    65  61  86 N3        29.95R
$$

ILZ028>032-037-038-041>044-048-051>054-059>061-030600-
CENTRAL ILLINOIS

CITY           SKY/WX    TMP DP  RH WIND       PRES   REMARKS
PONTIAC        CLOUDY    61  57  88 NE12      29.98R
BLOOMINGTON    CLOUDY    62  59  90 NE12      29.96F
DECATUR        CLOUDY    66  61  84 NE6       29.92S
PEORIA         CLOUDY    68  57  68 NE9       29.95S
LACON*         CLOUDY    63  55  77 NE8       29.96R
LINCOLN*       CLOUDY    65  60  81 NE6       29.94S
SPRINGFIELD    MOCLDY    68  62  81 NE6       29.93S
TAYLORVILLE    CLOUDY    64  61  88 N5        29.92S
$$

ILZ033-039-045-046-055>057-062-063-030600-
EAST-CENTRAL ILLINOIS

CITY           SKY/WX    TMP DP  RH WIND       PRES   REMARKS
CHAMPAIGN      CLOUDY    66  60  81 NE12      29.92S
DANVILLE*      MOCLDY    64  62  91 N8        29.91S
RANTOUL*       MOCLDY    65  61  87 NE12      29.94S
MATTOON        CLOUDY    68  64  87 N7        29.90R
PARIS*         CLOUDY    68  64  87 NE7       29.91S
$$

ILZ079-100>102-030600-
SOUTHWEST ILLINOIS

CITY           SKY/WX    TMP DP  RH WIND       PRES   REMARKS
ALTON          CLOUDY    67  67 100 CALM      29.92S
BELLEVILLE     MOCLDY    69  65  89 VRB2      29.90S
CAHOKIA*       CLOUDY    70  62  76 N5        29.91S
SPARTA*        CLOUDY    70  64  82 N5        29.91S
$$

ILZ064>066-069>071-074>076-080>082-084>086-088>090-092>094-030600-
SOUTH-CENTRAL ILLINOIS

CITY           SKY/WX    TMP DP  RH WIND       PRES   REMARKS
CARBONDALE     CLOUDY    72  70  93 CALM      29.89R
CAIRO*         CLOUDY    72  69  90 CALM      29.87S
EFFINGHAM*     CLOUDY    69  64  82 CALM      29.91R
MARION         CLOUDY    73  70  88 N3        29.89F
MT. VERNON     MOCLDY    70  63  78 N3        29.90S
CENTRALIA*     CLOUDY    69  62  80 CALM      29.90F
SALEM*         CLOUDY    71  65  81 CALM      29.91R
METROPOLIS*    CLOUDY    73  73 100 CALM      29.88S
$$

ILZ067-068-072-073-078-083-087-091-030600-
SOUTHEAST ILLINOIS

CITY           SKY/WX    TMP DP  RH WIND       PRES   REMARKS
LAWRENCEVILLE  CLOUDY    71  69  93 N5        29.87S
FLORA*         MOCLDY    70  66  88 NW5       29.90R
FAIRFIELD*     CLOUDY    72  69  92 CALM      29.88R
HARRISBURG*    CLOUDY    73  72  97 CALM      29.89S
ROBINSON*      MOCLDY    70  68  92 N5        29.88S
CARMI*         MOCLDY    73  66  78 W5        29.88R
$$

ABBREVIATIONS USED IN REMARKS
   TC - TEMPERATURE IN CELSIUS
  WCI - WIND CHILL INDEX
   HX - HEAT INDEX
  VSB - VISIBILITY
$$



USA.gov is the U.S. government's official web portal to all federal, state and local government web resources and services.